Location: Krakow
(50.0830°N, 19.9170°E)
Time: 04:45:40
(UTC+01:00)

SR - Pass Details

Date: 10 February 2023
Orbit: 582 x 867 km, 66.7° (Epoch: 20 March)

Event Time Altitude Azimuth Distance (km) Brightness Sun altitude
Rises 11:28:11 0° 173° (S) 3,199 ? 25.3°
Reaches altitude 10° 11:31:11 10° 157° (SSE) 2,223 ? 25.4°
Maximum altitude 11:34:47 20° 111° (ESE) 1,589 ? 25.4°
Drops below altitude 10° 11:38:13 10° 65° (ENE) 2,100 ? 25.5°
Sets 11:40:57 0° 48° (NE) 2,968 ? 25.5°
